FW6645 Weather Reports


time (UTC)temp
C
wind
direction
speed
KPH
gust
KPH
rain 1hr
cm
rain 24hr
cm
rain mn
cm
humidity
%
barometer
mb
20260902101536 20 270 1.6 12.9 0.00 0.25 0.00 64 1002.0
20260902100031 20 236 0.0 8.0 0.00 0.25 0.00 67 1001.9
20260902094600 20 206 11.3 17.7 0.00 0.25 0.00 64 1002.0
20260902093105 20 210 6.4 14.5 0.00 0.25 0.00 66 1002.2
20260902091528 20 232 3.2 9.7 0.00 0.25 0.00 65 1002.2
20260902090029 21 201 8.0 12.9 0.00 0.25 0.00 63 1002.3
20260902084526 21 215 8.0 16.1 0.00 0.25 0.00 62 1002.4
20260902083025 21 220 0.0 8.0 0.00 0.25 0.00 63 1002.5
20260902081525 21 240 11.3 24.1 0.00 0.25 0.00 62 1002.5
20260902080024 20 244 3.2 20.9 0.00 0.25 0.00 65 1002.6
20260902074525 21 237 9.7 19.3 0.00 0.25 0.00 63 1002.6
20260902073021 20 232 0.0 0.0 0.00 0.25 0.00 67 1002.5
20260902071520 20 216 4.8 16.1 0.00 0.25 0.00 64 1002.6
20260902070021 20 206 11.3 19.3 0.00 0.25 0.00 63 1002.6
20260902064549 21 226 1.6 16.1 0.00 0.25 0.00 62 1002.7
20260902063048 20 231 6.4 14.5 0.00 0.25 0.00 62 1002.6
20260902061537 20 212 6.4 14.5 0.00 0.25 0.00 61 1002.5
20260902060023 21 229 6.4 17.7 0.00 0.25 0.00 60 1002.4
20260902054517 21 228 3.2 14.5 0.00 0.25 0.00 59 1002.5
20260902053014 21 195 12.9 20.9 0.00 0.25 0.00 56 1002.4
20260902051513 22 214 16.1 25.7 0.00 0.25 0.00 56 1002.5
20260902050013 21 196 14.5 25.7 0.00 0.25 0.00 60 1002.4
20260902044513 21 213 11.3 19.3 0.00 0.25 0.00 65 1002.3
20260902043009 21 230 4.8 19.3 0.00 0.25 0.00 64 1002.4
20260902041509 21 218 16.1 25.7 0.00 0.25 0.00 61 1002.5
20260902040009 22 235 9.7 19.3 0.00 0.25 0.00 60 1002.2
20260902034508 22 189 8.0 14.5 0.00 0.25 0.00 61 1001.8
20260902033006 22 201 6.4 17.7 0.00 0.25 0.00 60 1001.8
20260902031507 22 167 6.4 14.5 0.00 0.25 0.00 60 1001.5
20260902030005 22 165 6.4 16.1 0.00 0.25 0.00 60 1001.4
20260902024505 23 214 8.0 17.7 0.00 0.25 0.00 58 1001.1
20260902023003 23 147 4.8 16.1 0.00 0.25 0.00 55 1000.9
20260902021502 23 223 4.8 11.3 0.00 0.25 0.00 56 1000.9
20260902020001 23 177 0.0 4.8 0.00 0.25 0.00 53 1001.0
20260902014601 24 143 0.0 1.6 0.00 0.25 0.00 54 1001.0
20260902014504 24 181 0.0 1.6 0.00 0.25 0.00 55 1001.0
20260902013058 25 141 0.0 3.2 0.00 0.25 0.00 51 1001.2
20260902011555 25 143 0.0 1.6 0.00 0.25 0.00 52 1001.3
20260902010051 23 116 0.0 1.6 0.00 0.25 0.00 61 1001.3
20260902004551 23 51 0.0 1.6 0.00 0.25 0.00 62 1001.6
20260902003047 23 316 0.0 1.6 0.00 0.25 0.00 65 1001.8
20260902001559 23 189 0.0 6.4 0.00 0.25 0.00 64 1001.8
20260902000044 22 143 3.2 9.7 0.00 0.25 0.00 64 1001.8
20260901234538 21 142 4.8 12.9 0.00 0.25 0.00 73 1001.8
20260901233006 20 160 6.4 19.3 0.03 0.25 0.00 76 1002.2
20260901231501 19 134 9.7 14.5 0.23 0.25 0.00 82 1002.8
20260901230056 18 121 1.6 9.7 0.23 0.25 0.00 87 1002.8
20260901224552 17 328 0.0 1.6 0.23 0.25 0.25 87 1002.4
20260901223053 18 131 3.2 59.5 0.23 0.25 0.25 82 1003.7
20260901221559 25 299 0.0 6.4 0.03 0.03 0.03 48 1002.1
20260901220021 25 322 0.0 6.4 0.03 0.03 0.03 50 1001.8
20260901214521 25 13 4.8 14.5 0.03 0.03 0.03 54 1001.8
20260901213018 26 64 0.0 30.6 0.03 0.03 0.03 49 1002.1
20260901211516 27 53 4.8 12.9 0.00 0.00 0.00 46 1002.1
20260901210014 27 352 1.6 14.5 0.00 0.00 0.00 45 1001.9
20260901204513 27 49 8.0 17.7 0.00 0.08 0.00 46 1002.2
20260901203040 27 18 1.6 14.5 0.00 0.08 0.00 47 1002.7
20260901201539 26 30 1.6 12.9 0.00 0.08 0.00 50 1003.0
20260901200039 26 348 0.0 4.8 0.00 0.08 0.00 51 1003.5
20260901194534 25 77 1.6 11.3 0.00 0.08 0.00 53 1003.6
20260901193032 25 51 0.0 9.7 0.00 0.08 0.00 54 1004.0
20260901191550 25 38 0.0 12.9 0.00 0.08 0.00 56 1004.2
20260901190025 25 49 0.0 8.0 0.00 0.08 0.00 56 1004.6
20260901184524 24 79 0.0 12.9 0.00 0.08 0.00 58 1004.6
20260901183023 24 15 3.2 8.0 0.00 0.08 0.00 59 1004.8
20260901181524 23 19 4.8 11.3 0.00 0.08 0.00 60 1005.1
20260901180053 23 50 1.6 6.4 0.00 0.08 0.00 61 1005.0
20260901174553 23 95 0.0 11.3 0.00 0.08 0.00 61 1005.0
20260901173059 23 49 0.0 3.2 0.00 0.08 0.00 61 1005.3
20260901171600 22 67 1.6 11.3 0.00 0.08 0.00 63 1005.6
20260901170049 22 47 0.0 1.6 0.00 0.08 0.00 66 1005.6
20260901164549 21 68 0.0 11.3 0.00 0.08 0.00 69 1005.4
20260901163046 21 41 0.0 6.4 0.00 0.08 0.00 67 1005.4
20260901161602 21 323 1.6 9.7 0.00 0.08 0.00 68 1005.4
20260901160045 22 11 0.0 0.0 0.00 0.08 0.00 65 1005.4
20260901154554 21 285 0.0 0.0 0.00 0.08 0.00 66 1005.4
20260901153051 21 16 0.0 0.0 0.00 0.08 0.00 67 1005.6
20260901151542 21 343 0.0 0.0 0.00 0.08 0.00 68 1005.7
20260901150042 20 283 0.0 3.2 0.00 0.08 0.00 70 1005.8
20260901144546 19 53 0.0 3.2 0.00 0.08 0.00 72 1005.8
20260901143046 19 290 0.0 1.6 0.00 0.08 0.00 73 1005.8
20260901141546 18 292 0.0 3.2 0.00 0.08 0.00 75 1005.7
20260901140035 18 265 0.0 0.0 0.00 0.08 0.00 77 1005.5
20260901134534 19 85 0.0 0.0 0.00 0.10 0.00 73 1005.5
20260901133034 18 85 0.0 0.0 0.00 0.10 0.00 79 1005.3
20260901131529 16 85 0.0 0.0 0.00 0.10 0.00 83 1005.1
20260901130029 16 84 0.0 0.0 0.00 0.10 0.00 83 1004.9
20260901124528 16 84 0.0 0.0 0.00 0.28 0.00 82 1004.7
20260901123027 16 86 0.0 0.0 0.00 0.28 0.00 83 1004.6
20260901121524 16 86 0.0 0.0 0.00 0.28 0.00 84 1004.5
20260901120023 16 86 0.0 0.0 0.00 0.28 0.00 84 1004.2
20260901114522 16 85 0.0 0.0 0.00 0.28 0.00 84 1004.3
20260901113023 16 56 0.0 0.0 0.00 0.28 0.00 82 1004.3
20260901111519 16 56 0.0 0.0 0.00 0.28 0.00 82 1004.2
20260901110018 16 56 0.0 0.0 0.00 0.28 0.00 81 1004.5
20260901104517 17 56 0.0 0.0 0.00 0.28 0.00 81 1004.5
20260901103014 17 56 0.0 0.0 0.00 0.28 0.00 82 1004.7